ASIASAT 8 (AMOS-7)

Last updated on Thu Jul 03 2025 00:02:46 GMT+0000 (Coordinated Universal Time)

1 40107U 14046A 25183.59636942 -.00000325 00000+0 00000+0 0 9999 2 40107 0.0406 210.4172 0001443 233.9678 156.4901 1.00271756 98643
UTC large
Height (km)
Speed (km/s)
/
Latitude / Longitude
Inclination (degrees)
Orbital Period (minutes)
Azimuth
Elevation
Range (km)
Doppler Factor

Next 0 passes for location: London (51.5072 / 0.1276)

Sorry there are no passes over London.